Starlink 31181

operational
NORAD ID: 58746 Int'l Des: 2024-005 Owner: SPXS Country: US Constellation: starlink
LEOCIRCULAR

关于 Starlink 31181

正在加载描述...

实时位置

正在加载3D地球...

即将过境

高度历史

Altitude vs Time

uPlot chart will show altitude changes over time

两行轨道根数

1 58746U 24005U 25257.94127309 -.00000863 00000-0 -21848-4 0 9993
2 58746 43.0001 340.0530 0000981 263.4352 96.6388 15.27572060 95401
Epoch: Sep 14, 2025 • Age: 14 hours

当前状态

高度 482.6 km
速度 7.63 km/s
星下点 17.87°N, 169.62°E
发射日期 Jan 7, 2024
运行时间 1.6 years
类型 internet

技术详情

分类 Payload
质量 730.00 kg
干质量 700.00 kg
总质量 730.00 kg
长度 0.30 m
直径 4.10 m
跨度 29.00 m
形状 Box + pan
制造商 SPXS
平台类型 Starlink V2M
阶段状态 In Orbit
所有者/国家 SPXS/US

大型星座

Loading constellations...